LUSAT (LO-19)

Last updated on Fri Dec 19 2025 00:03:11 GMT+0000 (Coordinated Universal Time)

1 20442U 90005G 25352.54673625 .00000117 00000+0 58612-4 0 9995 2 20442 98.8957 4.2769 0011894 21.0310 339.1361 14.34047038876504
UTC large
Height (km)
Speed (km/s)
/
Latitude / Longitude
Inclination (degrees)
Orbital Period (minutes)
Azimuth
Elevation
Range (km)
Doppler Factor

Next 0 passes for location: London (51.5072 / 0.1276)

Sorry there are no passes over London.